Погода в Итаке

Россия / Забайкальский край     53°53′19″N   118°42′35″E
темп.,
°C
ветер,
м/с
пор.,
м/с
влажн.,
%
обл.,
%
осадки,
мм/ч
давл.,
гПа
погр.,
м
8 марта, пн
пн800:00−17ююз2299100 0.0 102023
03:00−18ююз2210091 0.0 101825
06:00−18ююз229973 0.0 101529
09:00−16ююз2210086 0.0 101381
12:00−9юз2593100 0.0 1010253
15:00−4зсз6117295 0.1 10071615
18:00−7сз269498 0.9 1008563
21:00−12сз4147499 2.7 1013804
9 марта, вт
вт900:00−17сз238815 0.0 101842
03:00−19сз23878 0.0 102327
06:00−20зсз22850 0.0 102620
09:00−17сз12860 0.0 102944
12:00−10юз26720 0.0 1026685
15:00−8юз46703 0.0 1023982
18:00−9ююз268514 0.0 1021226
21:00−15ююз229539 0.0 102125
10 марта, ср
ср1000:00−15ююз229198 0.0 101923
03:00−16юз119199 0.0 101720
06:00−17зюз119597 0.0 101720
09:00−13з189358 0.0 1018342
12:00−7ссз511720 0.0 10181125
15:00−7сз510670 0.0 10191392
18:00−9сз27800 0.0 1022247
21:00−15зсз11890 0.0 102520
11 марта, чт
чт1100:00−16зюз11900 0.0 102620
03:00−17ююз12890 0.0 102620
06:00−18юз12903 0.0 102620
09:00−15юз11914 0.0 102642
12:00−6зюз13790 0.0 1024405
15:00−3з24750 0.0 1023798
18:00−5ююз239333 0.0 102290
21:00−11ююз129945 0.0 102421
12 марта, пт
пт1200:00−11ююз2310093 0.0 102435
03:00−11ююз3410096 0.1 1023132
06:00−13ююз3310097 0.0 102278
09:00−12ююз359997 0.1 1021124
12:00−5ююз349364 0.0 1017221
15:00−3ю479568 0.0 1014341
18:00−3ю3129280 0.0 1012572
21:00−9ююз339584 0.0 101255